Simultaneous Nadir Overpasses (SNOs) Predictions

Prediction of SNOs between GOES-15 and TERRA Satellite Orbit:

Table of predicted SNOs for the next 14.0 days since TLE Epoch: 4/9/2016
Index Date Time (GOES-15) GOES-15 Lat,Lon TERRA Lat,Lon Distance(km) Time Diff (sec)
1 04/10/2016 07:28:10 0.02,-135.33 0.11,-134.80 59.12 80
2 04/12/2016 07:15:59 0.03,-135.35 0.78,-131.85 398.11 80
3 04/12/2016 19:37:15 -0.03,-135.38 0.29,-137.02 185.71 80
4 04/14/2016 19:27:43 -0.04,-135.40 -0.34,-134.06 153.06 80
5 04/15/2016 07:49:06 0.04,-135.39 -0.75,-139.25 438.42 80
6 04/16/2016 19:15:31 -0.04,-135.42 -0.98,-131.10 491.70 80
7 04/17/2016 07:36:54 0.04,-135.40 -0.17,-136.28 99.89 80
8 04/19/2016 07:22:02 0.04,-135.42 0.48,-133.32 238.56 80
9 04/19/2016 19:43:17
